Dewpoint
70 71 71 72 73 72 71 71 71 72 71 71 72 70 72 72 72 70 68 72 73 73 72 73 73 73 73 73 73 73 73 73 73 73 73 73 74 73 74 73 72 72 72
71 70 70 72 71 71 71 70 72 70 69 70 69 72 72 72 72 71 70 68 71 71 72 72 72 73 72 73 73 73 73 73 73 73 74 74 74 73 73 73 74 73 73
71 72 73 71 71 72 71 73 73 70 72 71 70 71 72 72 72 71 70 70 68 71 70 71 72 72 72 71 71 73 73 74 73 74 74 74 74 74 74 74 74 74 74
71 71 74 73 72 71 72 71 72 70 71 71 71 71 72 71 72 72 72 71 70 68 71 73 73 73 72 71 70 71 73 75 74 74 74 74 74 74 74 74 74 75 74
74 71 71 72 72 72 71 74 73 71 71 71 70 71 71 71 73 73 70 70 71 70 69 71 73 73 71 71 71 71 73 74 75 75 75 75 75 75 75 75 75 75 75
74 73 73 72 72 72 73 72 71 72 71 71 70 72 71 72 72 72 72 72 71 71 70 68 71 71 73 71 72 73 73 74 73 74 75 75 75 75 75 75 75 75 75
74 75 74 73 73 72 71 73 72 71 71 71 70 69 70 70 72 72 72 72 72 71 69 69 69 70 71 73 73 73 73 73 73 73 74 75 75 75 75 74 75 75 75
73 74 74 73 74 73 73 72 71 71 71 72 70 68 66 66 71 72 73 72 72 72 69 69 69 70 70 70 70 72 73 74 73 73 73 73 75 75 75 74 74 75 75
74 74 74 74 73 73 73 73 73 72 71 71 71 68 64 63 66 69 71 71 70 72 71 70 70 71 71 70 71 71 73 73 74 73 73 73 73 75 75 75 75 75 75
74 73 73 73 73 73 73 73 73 73 72 71 71 72 69 68 65 63 67 70 71 71 70 70 70 71 71 71 71 71 71 72 73 73 72 72 73 75 75 75 75 75 75
75 74 74 75 74 74 73 74 73 72 73 71 71 70 69 69 67 65 64 65 70 71 72 72 72 71 71 72 71 71 72 72 73 73 73 73 73 73 73 73 75 75 74
73 74 73 75 76 75 74 75 74 74 73 73 73 72 71 70 68 66 64 65 65 66 69 72 71 72 72 73 73 73 73 73 73 73 73 73 73 74 74 73 73 74 74
71 70 74 74 75 75 76 76 75 74 74 73 73 73 72 71 70 68 67 66 66 68 68 70 71 73 73 73 73 73 74 72 72 72 72 72 73 73 73 74 74 74 73
72 74 75 75 75 75 76 75 75 74 74 74 73 74 73 73 71 69 67 65 63 66 67 67 68 70 73 72 73 74 73 72 72 71 71 72 72 72 72 73 73 74 74
73 73 74 74 75 75 76 76 76 75 75 75 74 73 73 73 71 70 67 67 66 62 64 67 68 69 69 70 71 70 70 72 72 71 70 71 71 71 71 72 72 72 73
74 75 75 75 75 76 77 77 76 76 74 73 73 72 72 72 71 70 66 66 68 66 64 69 70 65 67 71 69 70 70 73 71 71 70 70 70 71 71 71 71 71 72
73 74 75 75 75 75 77 77 75 75 72 68 67 70 72 71 70 72 70 70 68 68 66 67 68 68 66 67 69 68 70 73 72 70 70 69 69 70 70 70 70 70 70
74 74 76 74 74 75 77 75 74 75 71 69 70 70 72 73 70 71 71 68 69 69 68 67 68 69 68 69 68 67 69 73 74 71 69 69 69 68 69 69 68 68 68
74 75 74 73 75 76 76 75 75 74 71 71 71 72 73 72 71 70 69 68 69 70 71 70 69 70 71 70 66 68 69 71 74 73 69 68 68 68 67 67 66 66 65
73 74 73 73 75 75 75 75 75 74 72 71 73 72 73 73 72 71 71 70 72 71 71 71 70 69 70 71 70 69 68 69 69 73 71 70 69 68 68 66 66 66 64
73 74 75 75 75 75 76 72 73 73 73 73 73 73 74 73 72 72 72 71 73 71 70 67 66 65 67 68 67 69 68 69 70 71 71 71 70 70 70 67 68 68 65
75 75 74 74 73 75 70 70 70 70 70 70 71 73 73 73 73 70 70 70 71 71 70 67 65 64 64 70 70 70 69 67 66 70 70 68 72 71 71 70 68 67 65
70 68 67 68 67 70 69 69 70 68 67 67 68 69 71 70 70 71 70 68 68 68 69 69 66 65 65 67 70 70 67 66 66 68 70 67 70 70 72 72 68 66 65
66 66 66 66 66 67 68 68 68 65 64 64 63 64 64 62 66 70 70 70 70 70 69 68 67 66 66 66 68 69 71 68 68 69 68 65 66 67 70 72 68 66 65
65 66 66 66 64 65 65 65 66 63 63 61 62 61 61 60 63 64 66 68 68 67 67 67 66 66 65 65 67 71 71 69 69 67 69 68 68 68 70 70 71 65 63
67 68 65 66 66 66 64 64 63 62 62 61 61 60 61 58 59 59 59 61 62 66 67 67 66 65 66 67 66 68 69 68 66 65 68 68 66 67 63 68 70 68 64
Lifted_Index
-2 -2 -2 -3 -2 -2 -2 -2 -2 -2 -1 -2 -2 -2 -2 -2 -1 -1 -1 -1 -1 -2 -2 -3 -3 -3 -4 -4 -4 -4 -4 -5 -5 -5 -5 -5 -5 -5 -5 -5 -4 -4 -4
-3 -3 -3 -3 -3 -2 -2 -2 -2 -2 -2 -2 -2 -2 -2 -2 -2 -1 -1 -1 -1 -1 -1 -2 -2 -3 -3 -3 -4 -4 -4 -4 -5 -5 -5 -5 -5 -5 -5 -5 -5 -5 -5
-3 -3 -3 -3 -3 -3 -2 -2 -2 -3 -2 -2 -2 -2 -2 -2 -2 -2 -1 -1 -1 -1 -1 -1 -2 -2 -2 -2 -3 -3 -4 -5 -5 -5 -5 -5 -5 -5 -5 -5 -5 -5 -5
-3 -3 -3 -3 -3 -3 -3 -3 -3 -3 -3 -3 -3 -3 -3 -3 -3 -2 -2 -2 -2 -1 -1 -1 -1 -2 -2 -1 -1 -2 -4 -4 -5 -5 -5 -5 -5 -5 -5 -5 -5 -5 -5
-4 -4 -3 -3 -4 -3 -3 -3 -3 -3 -3 -3 -3 -3 -3 -3 -3 -3 -3 -2 -2 -1 -1 -1 -1 -2 -1 -1 -1 -2 -3 -4 -4 -5 -5 -5 -5 -5 -5 -5 -5 -5 -5
-5 -4 -4 -4 -4 -4 -4 -4 -4 -3 -3 -3 -3 -3 -3 -3 -3 -3 -3 -3 -2 -2 -1 -1 -1 -1 -1 -1 -1 -2 -3 -3 -3 -4 -4 -4 -5 -5 -5 -5 -5 -5 -5
-5 -5 -4 -4 -4 -4 -4 -4 -4 -4 -4 -4 -4 -4 -3 -4 -4 -4 -3 -3 -3 -2 -2 -2 -2 -1 -1 -1 -1 -2 -2 -3 -3 -3 -3 -4 -4 -4 -5 -5 -5 -5 -5
-5 -5 -5 -5 -5 -5 -5 -5 -4 -4 -4 -4 -4 -4 -4 -3 -4 -4 -4 -3 -3 -3 -3 -3 -2 -2 -1 -1 -1 -1 -2 -2 -2 -3 -3 -3 -4 -4 -4 -4 -5 -5 -5
-6 -6 -6 -6 -5 -5 -5 -5 -5 -5 -5 -4 -4 -4 -4 -3 -3 -3 -3 -3 -3 -3 -3 -3 -3 -2 -2 -2 -1 -1 -1 -2 -2 -2 -2 -3 -3 -4 -4 -4 -4 -5 -5
-7 -7 -6 -6 -6 -6 -5 -5 -5 -5 -5 -5 -4 -4 -4 -4 -3 -3 -3 -2 -3 -3 -3 -3 -3 -3 -2 -2 -2 -1 -1 -2 -2 -2 -2 -2 -3 -4 -4 -4 -4 -4 -4
-8 -8 -8 -7 -7 -6 -6 -6 -6 -5 -5 -5 -5 -5 -4 -4 -3 -3 -2 -2 -2 -2 -3 -3 -3 -3 -2 -2 -2 -2 -2 -2 -2 -2 -2 -2 -3 -3 -4 -4 -4 -4 -4
-8 -8 -8 -8 -8 -7 -7 -7 -6 -6 -6 -6 -6 -5 -5 -4 -4 -3 -2 -2 -1 -1 -2 -2 -2 -3 -3 -2 -2 -3 -2 -2 -2 -2 -2 -2 -3 -3 -3 -4 -4 -4 -4
-8 -8 -8 -8 -8 -8 -8 -8 -7 -7 -7 -7 -6 -6 -6 -5 -4 -3 -2 -1 -1 -1 -1 -1 -2 -2 -3 -3 -3 -3 -3 -3 -2 -2 -2 -2 -2 -2 -3 -3 -4 -4 -4
-8 -8 -8 -8 -8 -8 -8 -8 -8 -8 -8 -8 -8 -7 -7 -6 -5 -4 -2 -1 -1 -0 -1 -1 -1 -1 -2 -2 -2 -3 -3 -3 -3 -3 -3 -2 -2 -2 -2 -3 -3 -4 -4
-7 -8 -8 -8 -8 -8 -9 -9 -9 -9 -8 -8 -7 -7 -7 -6 -6 -4 -3 -1 -1 -0 -1 -1 -1 -1 -1 -1 -0 -1 -3 -3 -3 -3 -3 -3 -2 -2 -2 -2 -3 -3 -4
-7 -8 -8 -8 -8 -8 -9 -9 -9 -9 -7 -5 -5 -6 -7 -7 -6 -5 -4 -2 -1 -1 -1 -2 -2 -1 -1 -1 -0 -1 -2 -3 -4 -4 -4 -3 -3 -2 -2 -2 -2 -3 -3
-7 -7 -8 -8 -8 -8 -9 -9 -9 -8 -6 -3 -2 -4 -6 -7 -6 -5 -5 -4 -3 -2 -2 -2 -2 -2 -2 -2 -1 -1 -2 -3 -4 -4 -4 -4 -3 -3 -3 -3 -2 -2 -2
-7 -7 -8 -8 -8 -8 -9 -9 -8 -8 -6 -4 -3 -4 -5 -6 -6 -6 -5 -4 -3 -3 -3 -4 -4 -4 -4 -4 -3 -2 -2 -3 -4 -4 -4 -4 -4 -4 -3 -3 -2 -2 -2
-7 -7 -8 -7 -8 -8 -8 -8 -8 -7 -6 -5 -4 -5 -6 -6 -6 -6 -5 -5 -4 -4 -5 -5 -5 -5 -5 -4 -4 -3 -3 -3 -4 -4 -4 -4 -4 -4 -4 -3 -3 -2 -2
-8 -8 -8 -8 -8 -8 -8 -8 -8 -7 -7 -6 -6 -6 -6 -7 -6 -6 -6 -6 -5 -6 -6 -6 -6 -5 -4 -4 -4 -4 -3 -3 -3 -4 -4 -4 -4 -4 -4 -3 -3 -3 -2
-8 -8 -8 -8 -8 -8 -8 -8 -7 -6 -6 -6 -6 -6 -6 -6 -6 -6 -6 -6 -6 -6 -6 -6 -6 -4 -4 -4 -5 -4 -4 -4 -4 -4 -4 -4 -3 -3 -3 -3 -3 -3 -3
-8 -8 -8 -7 -7 -7 -7 -6 -5 -5 -4 -4 -4 -5 -6 -6 -6 -6 -6 -6 -6 -6 -6 -6 -5 -3 -3 -4 -5 -5 -5 -5 -4 -4 -4 -3 -3 -3 -2 -2 -3 -3 -3
-7 -6 -5 -4 -4 -4 -5 -4 -3 -2 -1 -1 -1 -2 -3 -4 -5 -5 -5 -5 -5 -5 -5 -5 -4 -3 -3 -3 -4 -5 -6 -6 -5 -4 -4 -3 -3 -3 -3 -3 -3 -3 -4
-4 -3 -3 -2 -2 -2 -2 -2 -2 -0 1 1 1 1 1 -1 -2 -3 -3 -4 -5 -5 -5 -4 -3 -3 -3 -3 -4 -5 -6 -6 -6 -5 -4 -4 -3 -2 -3 -3 -4 -4 -4
-3 -3 -2 -2 -1 -1 -1 -1 -0 1 2 2 2 3 3 3 2 1 0 -1 -3 -4 -4 -4 -3 -3 -2 -3 -3 -4 -5 -6 -6 -5 -5 -4 -3 -3 -3 -3 -4 -4 -4
-3 -3 -3 -2 -1 -1 -1 -0 0 1 2 2 2 3 3 3 3 3 3 1 -0 -2 -3 -3 -3 -2 -2 -2 -3 -4 -5 -5 -5 -5 -5 -4 -4 -3 -3 -3 -3 -3 -3